Date String (YYYY-MM-DD hh:mm:ss) UTC,Instrument flags,absolute air pressure of the measurement (hPa),sample flow rate (lpm),inlet stack bypass flow (lpm),air temperature of the measurement (°C),ambient temperature measured by the external sensor (°C),aerosol sample conditioner tube jacket temperature (°C),OPC LED temperature (°C),internal box temperature (°C),relative humidity of the measurement (%),span deviation,mass concentration of particles derived from Lorenz-Mie calculation of OPC scattering (μg/m³),mass concentration of particles derived from Lorenz-Mie calculation of OPC scattering (μg/m³),mass concentration of particles derived from Lorenz-Mie calculation of OPC scattering (μg/m³)
DateTimeUTC,F1_M11,P_M11,Q1_M11,Q2_M11,T1_M11,T2_M11,T3_M11,T4_M11,T5_M11,U1_M11,ZSPAN_M11,X0_M11,X2_M11,X1_M11
2024-03-06 05:00:00,SystemResetWarning,0824.9,5.00,000.00,018.7,018.0,000.0,027.2,020.4,18.0,0000.0,0010.07,0003.68,0002.84
2024-03-06 05:01:00,SystemResetWarning,0824.9,4.99,000.00,018.7,018.0,000.0,027.2,020.4,17.9,0000.0,0009.94,0003.72,0002.92
2024-03-06 05:02:00,SystemResetWarning,0824.9,5.00,000.00,018.7,018.0,000.0,027.2,020.4,17.9,0000.0,0010.57,0003.80,0003.02
2024-03-06 05:03:00,SystemResetWarning,0824.9,4.99,000.00,018.7,018.0,000.0,027.2,020.5,17.9,0000.0,0011.55,0003.93,0003.12
2024-03-06 05:04:00,SystemResetWarning,0824.9,5.00,000.00,018.7,018.1,000.0,027.2,020.5,17.8,0000.0,0012.04,0004.02,0003.18
2024-03-06 05:05:00,SystemResetWarning,0824.8,5.01,000.00,018.7,018.1,000.0,027.2,020.5,17.8,0000.0,0011.46,0004.00,0003.21
2024-03-06 05:06:00,SystemResetWarning,0824.9,5.01,000.00,018.7,018.1,000.0,027.2,020.5,17.8,0000.0,0011.45,0004.01,0003.22
2024-03-06 05:07:00,SystemResetWarning,0824.9,5.00,000.00,018.7,018.1,000.0,027.2,020.5,17.8,0000.0,0011.56,0004.03,0003.23
2024-03-06 05:08:00,SystemResetWarning,0824.9,5.00,000.00,018.7,018.1,000.0,027.2,020.5,17.8,0000.0,0011.68,0003.99,0003.22
2024-03-06 05:09:00,SystemResetWarning,0824.9,5.00,000.00,018.7,018.1,000.0,027.2,020.5,17.7,0000.0,0012.53,0003.97,0003.21
2024-03-06 05:10:00,SystemResetWarning,0824.9,5.00,000.00,018.8,018.1,000.0,027.2,020.5,17.7,0000.0,0013.78,0003.96,0003.20
2024-03-06 05:11:00,SystemResetWarning,0824.9,5.00,000.00,018.8,018.1,000.0,027.2,020.5,17.7,0000.0,0014.12,0003.93,0003.18
2024-03-06 05:12:00,SystemResetWarning,0824.9,5.00,000.00,018.8,018.1,000.0,027.2,020.5,17.5,0000.0,0014.32,0003.93,0003.17
2024-03-06 05:13:00,SystemResetWarning,0824.9,5.00,000.00,018.8,018.1,000.0,027.2,020.5,17.5,0000.0,0014.22,0003.91,0003.15
2024-03-06 05:14:00,SystemResetWarning,0824.9,5.00,000.00,018.8,018.1,000.0,027.2,020.5,17.5,0000.0,0013.39,0003.85,0003.14
2024-03-06 05:15:00,SystemResetWarning,0824.9,5.00,000.00,018.8,018.1,000.0,027.2,020.5,17.6,0000.0,0012.91,0003.80,0003.12
2024-03-06 05:16:00,SystemResetWarning,0824.9,5.00,000.00,018.8,018.1,000.0,027.2,020.5,17.6,0000.0,0013.44,0003.82,0003.12
2024-03-06 05:17:00,SystemResetWarning,0824.9,5.00,000.00,018.8,018.2,000.0,027.2,020.5,17.7,0000.0,0013.52,0003.86,0003.15
2024-03-06 05:18:00,SystemResetWarning,0824.9,5.00,000.00,018.8,018.2,000.0,027.2,020.5,17.7,0000.0,0014.28,0003.91,0003.19
2024-03-06 05:19:00,SystemResetWarning,0824.9,5.00,000.00,018.8,018.2,000.0,027.2,020.5,17.8,0000.0,0014.11,0003.94,0003.23
2024-03-06 05:20:00,SystemResetWarning,0824.8,5.00,000.00,018.8,018.2,000.0,027.2,020.5,17.8,0000.0,0013.69,0004.01,0003.26
2024-03-06 05:21:00,SystemResetWarning,0824.8,5.00,000.00,018.8,018.2,000.0,027.2,020.5,17.9,0000.0,0012.46,0004.09,0003.29
2024-03-06 05:22:00,SystemResetWarning,0824.8,5.00,000.00,018.8,018.2,000.0,027.2,020.5,18.0,0000.0,0012.15,0004.19,0003.33
2024-03-06 05:23:00,SystemResetWarning,0824.7,5.00,000.00,018.8,018.2,000.0,027.2,020.5,18.1,0000.0,0012.31,0004.23,0003.38
2024-03-06 05:24:00,SystemResetWarning,0824.7,5.00,000.00,018.8,018.2,000.0,027.2,020.6,18.0,0000.0,0012.69,0004.33,0003.42
2024-03-06 05:25:00,SystemResetWarning,0824.7,5.00,000.00,018.8,018.2,000.0,027.2,020.6,18.0,0000.0,0013.31,0004.40,0003.45
2024-03-06 05:26:00,SystemResetWarning,0824.8,5.00,000.00,018.8,018.1,000.0,027.2,020.6,18.0,0000.0,0013.56,0004.50,0003.48
2024-03-06 05:27:00,SystemResetWarning,0824.7,5.00,000.00,018.8,018.2,000.0,027.2,020.5,18.0,0000.0,0013.49,0004.54,0003.50
2024-03-06 05:28:00,SystemResetWarning,0824.7,5.00,000.00,018.8,018.2,000.0,027.2,020.5,18.0,0000.0,0013.88,0004.55,0003.50
2024-03-06 05:29:00,SystemResetWarning,0824.7,5.00,000.00,018.8,018.2,000.0,027.2,020.5,18.0,0000.0,0014.22,0004.56,0003.50
2024-03-06 05:30:00,SystemResetWarning,0824.7,5.00,000.00,018.8,018.2,000.0,027.2,020.6,18.0,0000.0,0015.09,0004.57,0003.50
2024-03-06 05:31:00,SystemResetWarning,0824.7,4.99,000.00,018.8,018.1,000.0,027.2,020.5,18.0,0000.0,0015.18,0004.53,0003.49
2024-03-06 05:32:00,SystemResetWarning,0824.7,5.00,000.00,018.8,018.1,000.0,027.2,020.5,18.0,0000.0,0015.11,0004.49,0003.49
2024-03-06 05:33:00,SystemResetWarning,0824.7,5.00,000.00,018.8,018.2,000.0,027.2,020.6,18.1,0000.0,0014.90,0004.45,0003.49
2024-03-06 05:34:00,SystemResetWarning,0824.7,5.00,000.00,018.8,018.2,000.0,027.2,020.6,18.1,0000.0,0015.28,0004.48,0003.50
2024-03-06 05:35:00,SystemResetWarning,0824.7,5.01,000.00,018.8,018.2,000.0,027.2,020.5,18.0,0000.0,0015.38,0004.48,0003.51
2024-03-06 05:36:00,SystemResetWarning,0824.7,5.01,000.00,018.9,018.2,000.0,027.2,020.6,17.9,0000.0,0015.24,0004.53,0003.54
2024-03-06 05:37:00,SystemResetWarning,0824.7,5.00,000.00,018.9,018.2,000.0,027.2,020.6,17.9,0000.0,0015.94,0004.51,0003.55
2024-03-06 05:38:00,SystemResetWarning,0824.7,4.99,000.00,018.9,018.2,000.0,027.2,020.6,17.9,0000.0,0017.18,0004.54,0003.57
2024-03-06 05:39:00,SystemResetWarning,0824.7,5.00,000.00,018.9,018.2,000.0,027.2,020.6,18.0,0000.0,0017.14,0004.55,0003.57
2024-03-06 05:40:00,SystemResetWarning,0824.7,5.00,000.00,018.9,018.2,000.0,027.2,020.5,18.0,0000.0,0016.12,0004.54,0003.57
2024-03-06 05:41:00,SystemResetWarning,0824.7,5.00,000.00,018.9,018.2,000.0,027.2,020.5,18.0,0000.0,0015.44,0004.59,0003.58
2024-03-06 05:42:00,SystemResetWarning,0824.7,5.01,000.00,018.9,018.2,000.0,027.2,020.5,18.0,0000.0,0015.20,0004.67,0003.61
2024-03-06 05:43:00,SystemResetWarning,0824.7,5.00,000.00,018.9,018.2,000.0,027.2,020.5,18.0,0000.0,0015.57,0004.72,0003.63
2024-03-06 05:44:00,SystemResetWarning,0824.7,5.00,000.00,018.9,018.2,000.0,027.2,020.5,18.0,0000.0,0015.73,0004.77,0003.65
2024-03-06 05:45:00,SystemResetWarning,0824.7,4.99,000.00,018.9,018.2,000.0,027.2,020.6,18.0,0000.0,0016.01,0004.77,0003.67
2024-03-06 05:46:00,SystemResetWarning,0824.7,4.99,000.00,018.9,018.2,000.0,027.2,020.5,18.0,0000.0,0016.31,0004.79,0003.69
2024-03-06 05:47:00,SystemResetWarning,0824.7,5.00,000.00,018.9,018.2,000.0,027.2,020.5,18.0,0000.0,0016.40,0004.81,0003.71
2024-03-06 05:48:00,SystemResetWarning,0824.7,5.01,000.00,018.9,018.2,000.0,027.2,020.5,18.0,0000.0,0016.41,0004.83,0003.72
2024-03-06 05:49:00,SystemResetWarning,0824.7,5.00,000.00,018.9,018.2,000.0,027.2,020.5,18.0,0000.0,0016.52,0004.86,0003.74
2024-03-06 05:50:00,SystemResetWarning,0824.7,4.99,000.00,018.9,018.2,000.0,027.2,020.5,18.0,0000.0,0015.69,0004.88,0003.76
2024-03-06 05:51:00,SystemResetWarning,0824.7,5.01,000.00,018.8,018.2,000.0,027.2,020.5,18.1,0000.0,0015.08,0004.92,0003.78
2024-03-06 05:52:00,SystemResetWarning,0824.7,5.00,000.00,018.8,018.2,000.0,027.2,020.5,18.1,0000.0,0014.96,0004.97,0003.82
2024-03-06 05:53:00,SystemResetWarning,0824.7,5.01,000.00,018.8,018.1,000.0,027.2,020.5,18.1,0000.0,0014.78,0004.99,0003.85
2024-03-06 05:54:00,SystemResetWarning,0824.7,5.01,000.00,018.8,018.1,000.0,027.2,020.5,18.0,0000.0,0014.67,0004.98,0003.85
2024-03-06 05:55:00,SystemResetWarning,0824.7,4.99,000.00,018.8,018.1,000.0,027.2,020.5,17.9,0000.0,0015.15,0004.98,0003.85
2024-03-06 05:56:00,SystemResetWarning,0824.7,4.99,000.00,018.8,018.1,000.0,027.2,020.5,18.0,0000.0,0016.18,0005.05,0003.86
2024-03-06 05:57:00,SystemResetWarning,0824.7,5.00,000.00,018.8,018.1,000.0,027.2,020.5,18.3,0000.0,0015.42,0005.03,0003.84
2024-03-06 05:58:00,SystemResetWarning,0824.6,5.01,000.00,018.8,018.1,000.0,027.2,020.5,18.4,0000.0,0015.48,0004.99,0003.82
2024-03-06 05:59:00,SystemResetWarning,0824.5,4.99,000.00,018.8,018.1,000.0,027.2,020.5,18.6,0000.0,0015.46,0004.96,0003.81
